Search for airport 
image banner adimage banner ad
image banner ad

DNMM - Lagos/Murtala Muhammed

Located in Lagos, Nigeria

ICAO - DNMM, IATA - LOS

Data provided by Airmate  

General information

Coordinates: N6°34'43" E3°19'21"
Elevation is 138 feet MSL.
 
View others Airports in Lagos

Operational data

Open for public use
Current time UTC:
Current local time:
Weather
METAR: DNMM 201400Z 25010KT 9999 SCT015 32/25 Q1011 NOSIG
TAF: TAF DNMM 191700Z 1918/2024 VRB02KT 9999 SCT011 TEMPO 1918/2001 TS BKN011 FEW020CB PROB30 1918/1922 5000-TSRA BKN009 FEW019CB BECMG 2008/2010 23010KT BKN012 FEW020CB BECMG 2016/2018 VRB02KT SCT011
View NOTAMs / SUP AIP / TFR affecting this airport [VIEW]
Communications frequencies: [VIEW]

Runways:

RWY identifierQFULength (ft)Width (ft)SurfaceLDA (ft)
36L359°12795197
18R179°12794197ASP
36R359°9006148
18L179°9006148

Airport contact information

Address: Lagos Nigeria

Satellite view of DNMM